Pine River, MN

7:18 AM CDT on October 21, 2017 (GMT -0500)
Pine River Regional

Weather History for KPWC - April, 2014

Change the Weather History Date:

Wednesday, April 23, 2014

  Actual Average Record
Temperature  
Mean Temperature 42 °F -  
Max Temperature 51 °F 56 °F 78 °F (2009)
Min Temperature 33 °F 31 °F 21 °F (2013)
Degree Days  
Heating Degree Days 23    
Moisture  
Dew Point 30 °F    
Average Humidity 71    
Maximum Humidity 100    
Minimum Humidity 41    
Precipitation  
Precipitation 0.36 in - - ()
Sea Level Pressure  
Sea Level Pressure 30.03 in    
Wind  
Wind Speed 7 mph (SE)    
Max Wind Speed 20 mph    
Max Gust Speed 26 mph    
Visibility 9 miles    
Events Rain , Snow , Thunderstorm    
Averages and records for this station are not official NWS values.
T = Trace of Precipitation, MM = Missing Value Source: NWS Daily Summary

Daily Weather History Graph

Daily Weather History Graph

Search for Another Location

Airport or City:

Trip Planner

Search our weather history database for the weather conditions in past years. The results will help you decide how hot, cold, wet, or windy it might be!

Date:

Astronomy

Apr. 23, 2014 Rise Set
Actual Time 6:15 AM CDT 8:16 PM CDT
Civil Twilight 5:43 AM CDT 8:49 PM CDT
Nautical Twilight 5:03 AM CDT 9:29 PM CDT
Astronomical Twilight 4:18 AM CDT 10:14 PM CDT
Moon 3:10 AM CDT (4/23) 2:04 PM CDT (4/23)
Length of Visible Light 15h 06m
Length of Day
14h 00m
Waning Crescent, 34% of the Moon is Illuminated
Apr 23
Waning Crescent
Apr 29
New
May 6
First Quarter
May 14
Full
May 21
Last Quarter

Hourly Weather History & Observations

Time (CDT) Temp. Windchill Dew Point Humidity Pressure Visibility Wind Dir Wind Speed Gust Speed Precip Events Conditions
12:12 AM 35.6 °F - 24.8 °F 65% 30.09 in 10.0 mi Calm Calm - N/A   Clear
12:33 AM 35.6 °F 32.8 °F 26.6 °F 70% 30.09 in 10.0 mi East 3.5 mph - N/A   Clear
12:53 AM 37.4 °F 34.9 °F 24.8 °F 60% 30.09 in 10.0 mi ESE 3.5 mph - N/A   Clear
1:12 AM 35.6 °F - 24.8 °F 65% 30.09 in 10.0 mi Calm Calm - N/A   Clear
1:32 AM 35.6 °F - 24.8 °F 65% 30.08 in 10.0 mi Calm Calm - N/A   Clear
1:52 AM 35.6 °F - 24.8 °F 65% 30.08 in 10.0 mi Calm Calm - N/A   Clear
2:13 AM 35.6 °F 32.8 °F 24.8 °F 65% 30.09 in 10.0 mi SE 3.5 mph - N/A   Clear
2:32 AM 35.6 °F 31.7 °F 24.8 °F 65% 30.08 in 10.0 mi SE 4.6 mph - N/A   Clear
2:53 AM 35.6 °F 32.8 °F 24.8 °F 65% 30.08 in 10.0 mi ESE 3.5 mph - N/A   Clear
3:12 AM 35.6 °F 31.7 °F 24.8 °F 65% 30.08 in 10.0 mi SE 4.6 mph - N/A   Clear
3:33 AM 35.6 °F 31.7 °F 24.8 °F 65% 30.08 in 10.0 mi SE 4.6 mph - N/A   Clear
3:53 AM 35.6 °F 32.8 °F 24.8 °F 65% 30.08 in 10.0 mi SE 3.5 mph - N/A   Clear
4:13 AM 35.6 °F 30.7 °F 24.8 °F 65% 30.08 in 10.0 mi ESE 5.8 mph - N/A   Clear
4:32 AM 35.6 °F 30.7 °F 24.8 °F 65% 30.08 in 10.0 mi ESE 5.8 mph - N/A   Clear
5:13 AM 35.6 °F 31.7 °F 24.8 °F 65% 30.08 in 10.0 mi SE 4.6 mph - N/A   Clear
5:33 AM 33.8 °F 30.8 °F 24.8 °F 70% 30.08 in 10.0 mi SE 3.5 mph - N/A   Clear
5:53 AM 33.8 °F 29.6 °F 24.8 °F 70% 30.09 in 10.0 mi ESE 4.6 mph - N/A   Clear
6:13 AM 33.8 °F 28.6 °F 26.6 °F 75% 30.08 in 10.0 mi ESE 5.8 mph - N/A   Clear
6:33 AM 33.8 °F 27.7 °F 26.6 °F 75% 30.08 in 10.0 mi ESE 6.9 mph - N/A   Clear
6:53 AM 35.6 °F 30.7 °F 26.6 °F 70% 30.08 in 10.0 mi ESE 5.8 mph - N/A   Clear
7:13 AM 35.6 °F 29.9 °F 26.6 °F 70% 30.07 in 10.0 mi ESE 6.9 mph - N/A   Clear
7:33 AM 37.4 °F 32.8 °F 26.6 °F 65% 30.07 in 10.0 mi ESE 5.8 mph - N/A   Clear
7:52 AM 37.4 °F 31.4 °F 26.6 °F 65% 30.07 in 10.0 mi ESE 8.1 mph - N/A   Clear
8:13 AM 39.2 °F 34.2 °F 28.4 °F 65% 30.07 in 10.0 mi SE 6.9 mph - N/A   Clear
8:33 AM 41.0 °F 35.2 °F 28.4 °F 61% 30.08 in 10.0 mi SE 9.2 mph - N/A   Clear
8:53 AM 42.8 °F 37.5 °F 28.4 °F 57% 30.08 in 10.0 mi SE 9.2 mph - N/A   Clear
9:13 AM 42.8 °F 36.6 °F 28.4 °F 57% 30.08 in 10.0 mi SE 11.5 mph - N/A   Clear
9:32 AM 42.8 °F 37.0 °F 28.4 °F 57% 30.07 in 10.0 mi SE 10.4 mph - N/A   Clear
9:53 AM 44.6 °F 39.2 °F 28.4 °F 53% 30.07 in 10.0 mi SE 10.4 mph - N/A   Clear
10:13 AM 44.6 °F 38.8 °F 28.4 °F 53% 30.07 in 10.0 mi SE 11.5 mph - N/A   Clear
10:33 AM 44.6 °F 38.8 °F 28.4 °F 53% 30.06 in 10.0 mi SE 11.5 mph - N/A   Clear
10:53 AM 46.4 °F 41.1 °F 28.4 °F 50% 30.06 in 10.0 mi SE 11.5 mph - N/A   Clear
11:13 AM 46.4 °F 40.7 °F 28.4 °F 50% 30.05 in 10.0 mi SE 12.7 mph 19.6 mph N/A   Clear
11:33 AM 46.4 °F 39.5 °F 28.4 °F 50% 30.04 in 10.0 mi SE 17.3 mph 21.9 mph N/A   Clear
11:53 AM 48.2 °F - 28.4 °F 46% 30.04 in 10.0 mi ESE 13.8 mph 24.2 mph N/A   Clear
12:13 PM 48.2 °F - 28.4 °F 46% 30.03 in 10.0 mi SE 15.0 mph 20.7 mph N/A   Clear
12:33 PM 48.2 °F - 28.4 °F 46% 30.03 in 10.0 mi SE 12.7 mph - N/A   Clear
12:53 PM 50.0 °F - 28.4 °F 43% 30.02 in 10.0 mi SE 17.3 mph 21.9 mph N/A   Clear
1:13 PM 50.0 °F - 28.4 °F 43% 30.02 in 10.0 mi ESE 17.3 mph 21.9 mph N/A   Clear
1:32 PM 51.8 °F - 28.4 °F 41% 30.02 in 10.0 mi ESE 16.1 mph 20.7 mph N/A   Clear
1:53 PM 50.0 °F - 28.4 °F 43% 30.02 in 10.0 mi ESE 16.1 mph - N/A   Clear
2:13 PM 48.2 °F - 28.4 °F 46% 30.01 in 10.0 mi ESE 15.0 mph 21.9 mph N/A   Scattered Clouds
2:32 PM 48.2 °F - 28.4 °F 46% 30.00 in 10.0 mi SE 13.8 mph 19.6 mph N/A   Clear
2:53 PM 48.2 °F - 28.4 °F 46% 30.00 in 10.0 mi SE 16.1 mph 25.3 mph N/A   Scattered Clouds
3:33 PM 46.4 °F 39.0 °F 30.2 °F 53% 30.00 in 10.0 mi South 19.6 mph 26.5 mph N/A   Overcast
3:52 PM 42.8 °F 34.5 °F 33.8 °F 70% 30.01 in 10.0 mi SSE 18.4 mph 24.2 mph N/A Rain Light Rain
4:13 PM 41.0 °F 34.3 °F 35.6 °F 81% 30.01 in 10.0 mi SE 11.5 mph 19.6 mph 0.02 in Rain Rain
4:33 PM 37.4 °F 28.9 °F 35.6 °F 93% 30.01 in 10.0 mi ESE 13.8 mph - 0.07 in Rain Rain
4:53 PM 37.4 °F 29.3 °F 35.6 °F 93% 30.00 in 10.0 mi SE 12.7 mph 19.6 mph 0.02 in Rain Rain
5:11 PM 35.6 °F 27.1 °F 33.8 °F 93% 29.99 in 2.5 mi SE 12.7 mph 17.3 mph 0.08 in Rain Heavy Rain
5:33 PM 37.4 °F 29.8 °F 35.6 °F 93% 29.99 in 3.0 mi SE 11.5 mph 16.1 mph 0.13 in Rain Light Rain
5:53 PM 35.6 °F 28.0 °F 35.6 °F 100% 29.99 in 5.0 mi SE 10.4 mph - 0.02 in Rain Rain
6:12 PM 35.6 °F 28.0 °F 33.8 °F 93% 29.98 in 10.0 mi SE 10.4 mph 17.3 mph 0.04 in Rain Rain
6:52 PM 33.8 °F 26.4 °F 33.8 °F 100% 29.98 in 4.0 mi SE 9.2 mph - 0.01 in Snow Snow
7:11 PM 33.8 °F 27.7 °F 32.0 °F 93% 29.98 in 2.0 mi ESE 6.9 mph - 0.05 in Snow , Thunderstorm Light Thunderstorms and Snow
7:53 PM 33.8 °F 28.6 °F 33.8 °F 100% 29.98 in 5.0 mi ESE 5.8 mph - N/A Rain Light Rain
8:12 PM 33.8 °F 27.7 °F 33.8 °F 100% 29.98 in 4.0 mi ESE 6.9 mph - 0.01 in Rain Rain
8:32 PM 33.8 °F 24.8 °F 33.8 °F 100% 29.95 in 4.0 mi ESE 12.7 mph - 0.04 in Rain Rain
8:53 PM 35.6 °F 29.2 °F 33.8 °F 93% 29.96 in 7.0 mi ESE 8.1 mph 18.4 mph N/A Rain Light Rain
9:13 PM 35.6 °F 29.2 °F 33.8 °F 93% 29.97 in 4.0 mi ESE 8.1 mph - N/A Rain Light Rain
9:32 PM 35.6 °F 28.0 °F 33.8 °F 93% 29.97 in 4.0 mi ESE 10.4 mph - 0.01 in   Drizzle
9:53 PM 35.6 °F 27.5 °F 35.6 °F 100% 29.97 in 4.0 mi ESE 11.5 mph - 0.01 in Rain Light Rain
10:13 PM 35.6 °F 27.5 °F 35.6 °F 100% 29.96 in 7.0 mi ESE 11.5 mph 16.1 mph 0.02 in Rain Light Rain
10:33 PM 35.6 °F 28.0 °F 35.6 °F 100% 29.96 in 7.0 mi ESE 10.4 mph - 0.02 in   Light Drizzle
10:53 PM 35.6 °F 29.2 °F 35.6 °F 100% 29.97 in 7.0 mi ESE 8.1 mph - N/A Rain Light Rain
11:13 PM 35.6 °F 28.6 °F 35.6 °F 100% 29.96 in 10.0 mi ESE 9.2 mph - N/A   Overcast
11:32 PM 35.6 °F 28.0 °F 35.6 °F 100% 29.96 in 10.0 mi ESE 10.4 mph - N/A Rain Light Rain
11:52 PM 37.4 °F 29.8 °F 35.6 °F 93% 29.94 in 10.0 mi ESE 11.5 mph 18.4 mph N/A   Drizzle